TimeEDT,TemperatureF,Dew PointF,Humidity,Sea Level PressureIn,VisibilityMPH,Wind Direction,Wind SpeedMPH,Gust SpeedMPH,PrecipitationIn,Events,Conditions,WindDirDegrees,DateUTC
12:53 AM,60.1,52.0,75,30.16,10.0,East,6.9,-,N/A,,Clear,80,2013-03-10 05:53:00
1:53 AM,60.1,52.0,75,30.12,10.0,East,4.6,-,N/A,,Clear,90,2013-03-10 06:53:00
3:53 AM,57.9,51.1,78,30.10,10.0,Calm,Calm,-,N/A,,Clear,0,2013-03-10 07:53:00
4:53 AM,57.9,52.0,81,30.10,10.0,Calm,Calm,-,N/A,,Partly Cloudy,0,2013-03-10 08:53:00
5:53 AM,55.9,51.1,84,30.12,10.0,NW,4.6,-,N/A,,Mostly Cloudy,320,2013-03-10 09:53:00
6:53 AM,62.1,54.0,75,30.11,10.0,Calm,Calm,-,N/A,,Mostly Cloudy,0,2013-03-10 10:53:00
7:53 AM,57.2,53.6,88,30.12,10.0,Calm,Calm,-,N/A,,Mostly Cloudy,0,2013-03-10 11:53:00
8:53 AM,64.9,57.0,75,30.13,10.0,NE,3.5,-,N/A,,Mostly Cloudy,40,2013-03-10 12:53:00
9:53 AM,73.0,54.0,51,30.13,10.0,East,16.1,-,N/A,,Scattered Clouds,90,2013-03-10 13:53:00
10:53 AM,72.0,53.1,51,30.14,10.0,East,12.7,-,N/A,,Overcast,80,2013-03-10 14:53:00
11:53 AM,73.9,53.1,48,30.15,10.0,ESE,13.8,23.0,N/A,,Overcast,110,2013-03-10 15:53:00
12:53 PM,77.0,53.1,43,30.14,10.0,ESE,13.8,23.0,N/A,,Scattered Clouds,120,2013-03-10 16:53:00
1:53 PM,75.9,54.0,46,30.11,10.0,ESE,18.4,23.0,N/A,,Mostly Cloudy,110,2013-03-10 17:53:00
2:53 PM,75.9,52.0,43,30.09,10.0,ESE,15.0,21.9,N/A,,Partly Cloudy,110,2013-03-10 18:53:00
3:53 PM,75.0,55.0,50,30.08,10.0,East,12.7,-,N/A,,Scattered Clouds,90,2013-03-10 19:53:00
4:53 PM,75.0,55.0,50,30.07,10.0,ESE,17.3,23.0,N/A,,Overcast,120,2013-03-10 20:53:00
5:53 PM,75.0,55.0,50,30.07,10.0,East,13.8,-,N/A,,Mostly Cloudy,90,2013-03-10 21:53:00
6:53 PM,71.1,55.0,57,30.08,10.0,ESE,12.7,-,N/A,,Partly Cloudy,110,2013-03-10 22:53:00
7:53 PM,69.1,55.9,63,30.08,10.0,East,10.4,-,N/A,,Scattered Clouds,100,2013-03-10 23:53:00
8:53 PM,66.0,55.9,70,30.09,10.0,East,8.1,-,N/A,,Clear,90,2013-03-11 00:53:00
9:53 PM,64.0,55.0,73,30.11,10.0,East,5.8,-,N/A,,Clear,90,2013-03-11 01:53:00
10:53 PM,64.9,55.9,73,30.12,10.0,East,4.6,-,N/A,,Clear,90,2013-03-11 02:53:00
11:53 PM,64.0,55.9,75,30.11,10.0,East,4.6,-,N/A,,Clear,90,2013-03-11 03:53:00
12:53 AM,62.1,55.9,80,30.10,10.0,Calm,Calm,-,N/A,,Clear,0,2013-03-11 04:53:00